Showing default

M1, 43779

Orbit data source: Space-Track

M1, 43779 is a payload satellite owned by RAAF (AU) in SSO that was launched on Mon, 03 Dec 2018 UTC via an FALCON 9 launch vehicle from the Air Force Western Test Range (AFWTR). Payload-class satellites include a variety of spacecraft equipped with specific instruments for various scientific and technological missions. These include communications satellites like Starlink; space stations such as the ISS; scientific satellites like the Hubble; Earth observation satellites from companies like Planet Labs, Umbra, and HawkEye 360; GPS; miniature CubeSats for education and research; and military/defense satellites.

Loading next visibility...
Identifier
43779, 2018-099X
Orbit
SSO
Country
Flag of AUAU / AUS
Related business
Manufacturer
U. NSW
Mission
Non-operational Defense Imaging
Bus & Motor
CUBESAT 3U, Unknown motor
Mass
5 kg wet, 5 kg dry
Launch date (UTC)
2018-12-03 (8 years ago)
Launch vehicle
FALCON 9
Launch site
Air Force Western Test Range (AFWTR)
Object type
Payload
Rocket body
Debris
Shape & HBR
Box + 1 Pan, 0.1 m
Radar Cross Section
0.035 m², Medium (>0.1 m² and < 1m²)

Expand to show TLE details & history
Last TLE update: 2 days ago

TLE from 2 days ago
0 M1
1 43779U 18099X   26171.42198522  .00001683  00000-0  11434-3 0  9991
2 43779  97.4386 214.2911 0013609  29.5236 330.6758 15.07615278412624
Epoch: 2026-06-20T10:07Z
TLE epoch observation values (Epoch: 2026-06-20T10:07:39.523Z)
Latitude
Longitude
153.73958°
Altitude
538.351 km
Speed
7.598 km/s
True Right ascension
14h 17m 09s
True Declination
0° 00' 00"
Sunlit
Object was in full shadow at epoch
Visualization orbit readout
Latitude
Unknown
Longitude
Unknown
Altitude
Unknown
Speed
Unknown
Apparent Right ascension
Unknown
Apparent Declination
Unknown
Sunlit
N/A
Visualization observer readout
Local Sidereal Time
21:37:35
Azimuth
Unknown
Elevation
Unknown
Doppler factor
Unknown
Orbital elements
Apogee altitude
549.889 km
Perigee altitude
531.058 km
Semi-major axis
6,918.61 km
Eccentricity
0.00136
Inclination
97.4386°
RAAN
214.2911°
Arg. of periapsis
29.5236°
True anomaly
330.59931°
Mean anomaly
330.6758°
Eccentric anomaly
330.63757°
Mean motion
3.77151 °/min
Orbital period
95.45 mins
BSTAR
0.00011434
Loading maneuver chart data...
Computing Atmospheric mass density...
Loading historical data...
Loading historical data...
Loading historical data...
Loading historical data...
Loading historical data...
Loading historical data...
Loading historical data...

Documentation

Showing up to 5 results
|